This demonstration page uses our WeatherBlox Daily Observations layout. Learn more.

Left ArrowRight Arrow

44.8408, -93.29828

Hourly Observations for September 22, 2018

Temp ( °F °C ) Dew Point ( °F °C ) Humidity (%) Winds ( mph kmh ) Pressure ( in mb ) Visibility ( mi km ) Precip ( " mm )
12:53 am 00:53 Clear with Mist and Fog 48 8.9 44 6.7 86 86 SSW 5 7 30.35 1028 5 8 0.00 0.00
1:53 am 01:53 Clear 47 8.3 43 6.1 86 86 Calm 30.34 1028 10 16 0.00 0.00
2:53 am 02:53 Clear 47 8.3 43 6.1 86 86 Calm 30.34 1027 9 14 0.00 0.00
3:53 am 03:53 Clear 47 8.3 42 5.6 83 83 Calm 30.34 1027 10 16 0.00 0.00
4:53 am 04:53 Clear 46 7.8 42 5.6 86 86 Calm 30.33 1027 10 16 0.00 0.00
5:53 am 05:53 Clear 45 7.2 42 5.6 90 90 S 5 7 30.32 1027 10 16 0.00 0.00
6:53 am 06:53 Mostly Clear 47 8.3 42 5.6 83 83 S 5 7 30.32 1027 10 16 0.00 0.00
7:53 am 07:53 Sunny 48 8.9 42 5.6 80 80 S 8 13 30.31 1027 10 16 0.00 0.00
8:53 am 08:53 Mostly Sunny 51 10.6 42 5.6 71 71 S 7 11 30.31 1026 10 16 0.00 0.00
9:53 am 09:53 Mostly Sunny 54 12.2 41 5 62 62 S 10 17 30.30 1026 10 16 0.00 0.00
10:53 am 10:53 Mostly Sunny 57 13.9 40 4.4 53 53 S 16 26 30.29 1026 10 16 0.00 0.00
11:53 am 11:53 Mostly Sunny 59 15 39 3.9 48 48 S 14 22 30.26 1025 10 16 0.00 0.00
12:53 pm 12:53 Mostly Sunny 61 16.1 40 4.4 46 46 S 12 19 30.23 1024 10 16 0.00 0.00
1:53 pm 13:53 Mostly Sunny 63 17.2 42 5.6 47 47 S 16 26 30.19 1022 10 16 0.00 0.00
2:53 pm 14:53 Partly Cloudy 65 18.3 44 6.7 47 47 S 9 15 30.15 1021 10 16 0.00 0.00
3:53 pm 15:53 Partly Cloudy 66 18.9 44 6.7 45 45 SSW 12 19 30.12 1020 10 16 0.00 0.00
4:53 pm 16:53 Partly Cloudy 67 19.4 46 7.8 47 47 S 12 19 30.10 1019 10 16 0.00 0.00
5:53 pm 17:53 Partly Cloudy 67 19.4 46 7.8 47 47 S 15 24 30.08 1019 10 16 0.00 0.00
6:53 pm 18:53 Partly Cloudy 65 18.3 47 8.3 52 52 S 12 19 30.08 1019 10 16 0.00 0.00
7:53 pm 19:53 Partly Cloudy 61 16.1 48 8.9 63 63 SSE 9 15 30.06 1018 10 16 0.00 0.00
8:53 pm 20:53 Partly Cloudy 62 16.7 48 8.9 60 60 SSE 9 15 30.06 1018 10 16 0.00 0.00
9:53 pm 21:53 Partly Cloudy 61 16.1 47 8.3 60 60 S 9 15 30.07 1018 10 16 0.00 0.00
10:53 pm 22:53 Partly Cloudy 57 13.9 47 8.3 69 69 S 6 9 30.07 1018 10 16 0.00 0.00
11:53 pm 23:53 Partly Cloudy 58 14.4 48 8.9 70 70 SSE 7 11 30.07 1018 10 16 0.00 0.00

Powered by AerisWeather